owner,sensor,date,latitude,longitude,air_temperature,qcFlag 
DISL,ioos:station:DISL:PPTA:1,2017-04-01T00:00:00Z,30.2791,-87.5561,22.32,1111122 
DISL,ioos:station:DISL:PPTA:1,2017-04-01T00:30:00Z,30.2791,-87.5561,21.75,1111122 
DISL,ioos:station:DISL:PPTA:1,2017-04-01T01:00:00Z,30.2791,-87.5561,20.9,1111122 
DISL,ioos:station:DISL:PPTA:1,2017-04-01T01:30:00Z,30.2791,-87.5561,20.64,1111122 
DISL,ioos:station:DISL:PPTA:1,2017-04-01T02:00:00Z,30.2791,-87.5561,20.51,1111122 
DISL,ioos:station:DISL:PPTA:1,2017-04-01T02:30:00Z,30.2791,-87.5561,20.55,1111122 
DISL,ioos:station:DISL:PPTA:1,2017-04-01T03:00:00Z,30.2791,-87.5561,20.45,1111122 
DISL,ioos:station:DISL:PPTA:1,2017-04-01T03:30:00Z,30.2791,-87.5561,19.88,1111122 
DISL,ioos:station:DISL:PPTA:1,2017-04-01T04:00:00Z,30.2791,-87.5561,19.92,1111122 
DISL,ioos:station:DISL:PPTA:1,2017-04-01T04:30:00Z,30.2791,-87.5561,19.61,1111122 
DISL,ioos:station:DISL:PPTA:1,2017-04-01T05:00:00Z,30.2791,-87.5561,19.82,1111122 
DISL,ioos:station:DISL:PPTA:1,2017-04-01T05:30:00Z,30.2791,-87.5561,19.61,1111122 
DISL,ioos:station:DISL:PPTA:1,2017-04-01T06:00:00Z,30.2791,-87.5561,19.95,1111122 
DISL,ioos:station:DISL:PPTA:1,2017-04-01T06:30:00Z,30.2791,-87.5561,20.16,1111122 
DISL,ioos:station:DISL:PPTA:1,2017-04-01T07:00:00Z,30.2791,-87.5561,20.3,1111122 
DISL,ioos:station:DISL:PPTA:1,2017-04-01T07:30:00Z,30.2791,-87.5561,19.92,1111122 
DISL,ioos:station:DISL:PPTA:1,2017-04-01T08:00:00Z,30.2791,-87.5561,19.78,1111122 
DISL,ioos:station:DISL:PPTA:1,2017-04-01T08:30:00Z,30.2791,-87.5561,19.71,1111122 
DISL,ioos:station:DISL:PPTA:1,2017-04-01T09:00:00Z,30.2791,-87.5561,19.47,1111122 
DISL,ioos:station:DISL:PPTA:1,2017-04-01T09:30:00Z,30.2791,-87.5561,18.96,1111122 
DISL,ioos:station:DISL:PPTA:1,2017-04-01T10:00:00Z,30.2791,-87.5561,18.52,1111122 
DISL,ioos:station:DISL:PPTA:1,2017-04-01T10:30:00Z,30.2791,-87.5561,18.25,1111122 
DISL,ioos:station:DISL:PPTA:1,2017-04-01T11:00:00Z,30.2791,-87.5561,18.04,1111122 
DISL,ioos:station:DISL:PPTA:1,2017-04-01T11:30:00Z,30.2791,-87.5561,17.97,1111122 
DISL,ioos:station:DISL:PPTA:1,2017-04-01T12:00:00Z,30.2791,-87.5561,18.15,1111122 
DISL,ioos:station:DISL:PPTA:1,2017-04-01T12:30:00Z,30.2791,-87.5561,18.59,1111122 
DISL,ioos:station:DISL:PPTA:1,2017-04-01T13:00:00Z,30.2791,-87.5561,19.25,1111122 
DISL,ioos:station:DISL:PPTA:1,2017-04-01T13:30:00Z,30.2791,-87.5561,19.66,1111122 
DISL,ioos:station:DISL:PPTA:1,2017-04-01T14:00:00Z,30.2791,-87.5561,20.46,1111122 
DISL,ioos:station:DISL:PPTA:1,2017-04-01T14:30:00Z,30.2791,-87.5561,21.46,1111122 
DISL,ioos:station:DISL:PPTA:1,2017-04-01T15:00:00Z,30.2791,-87.5561,21.25,1111122 
DISL,ioos:station:DISL:PPTA:1,2017-04-01T15:30:00Z,30.2791,-87.5561,22.05,1111122 
DISL,ioos:station:DISL:PPTA:1,2017-04-01T16:00:00Z,30.2791,-87.5561,22.19,1111122 
DISL,ioos:station:DISL:PPTA:1,2017-04-01T16:30:00Z,30.2791,-87.5561,23.36,1111122 
DISL,ioos:station:DISL:PPTA:1,2017-04-01T17:00:00Z,30.2791,-87.5561,23.53,1111122 
DISL,ioos:station:DISL:PPTA:1,2017-04-01T17:30:00Z,30.2791,-87.5561,23.43,1111122 
DISL,ioos:station:DISL:PPTA:1,2017-04-01T18:00:00Z,30.2791,-87.5561,23.63,1111122 
DISL,ioos:station:DISL:PPTA:1,2017-04-01T18:30:00Z,30.2791,-87.5561,23.47,1111122 
DISL,ioos:station:DISL:PPTA:1,2017-04-01T19:00:00Z,30.2791,-87.5561,23.96,1111122 
DISL,ioos:station:DISL:PPTA:1,2017-04-01T19:30:00Z,30.2791,-87.5561,24.1,1111122 
DISL,ioos:station:DISL:PPTA:1,2017-04-01T20:00:00Z,30.2791,-87.5561,24.17,1111122 
DISL,ioos:station:DISL:PPTA:1,2017-04-01T20:30:00Z,30.2791,-87.5561,24.41,1111122 
DISL,ioos:station:DISL:PPTA:1,2017-04-01T21:00:00Z,30.2791,-87.5561,24.08,1111122 
DISL,ioos:station:DISL:PPTA:1,2017-04-01T21:30:00Z,30.2791,-87.5561,24.5,1111122 
DISL,ioos:station:DISL:PPTA:1,2017-04-01T22:00:00Z,30.2791,-87.5561,24.6,1111122 
DISL,ioos:station:DISL:PPTA:1,2017-04-01T22:30:00Z,30.2791,-87.5561,24.05,1111122 
DISL,ioos:station:DISL:PPTA:1,2017-04-01T23:00:00Z,30.2791,-87.5561,24.09,1111122 
DISL,ioos:station:DISL:PPTA:1,2017-04-01T23:30:00Z,30.2791,-87.5561,23.75,1111122 
DISL,ioos:station:DISL:PPTA:1,2017-04-02T00:00:00Z,30.2791,-87.5561,22.9,1111122 
DISL,ioos:station:DISL:PPTA:1,2017-04-02T00:30:00Z,30.2791,-87.5561,22.57,1111122 
DISL,ioos:station:DISL:PPTA:1,2017-04-02T01:00:00Z,30.2791,-87.5561,22.27,1111122 
DISL,ioos:station:DISL:PPTA:1,2017-04-02T01:30:00Z,30.2791,-87.5561,22.1,1111122 
DISL,ioos:station:DISL:PPTA:1,2017-04-02T02:00:00Z,30.2791,-87.5561,21.77,1111122 
DISL,ioos:station:DISL:PPTA:1,2017-04-02T02:30:00Z,30.2791,-87.5561,21.5,1111122 
DISL,ioos:station:DISL:PPTA:1,2017-04-02T03:00:00Z,30.2791,-87.5561,21.13,1111122 
DISL,ioos:station:DISL:PPTA:1,2017-04-02T03:30:00Z,30.2791,-87.5561,21.16,1111122 
DISL,ioos:station:DISL:PPTA:1,2017-04-02T04:00:00Z,30.2791,-87.5561,20.82,1111122 
DISL,ioos:station:DISL:PPTA:1,2017-04-02T04:30:00Z,30.2791,-87.5561,20.82,1111122 
DISL,ioos:station:DISL:PPTA:1,2017-04-02T05:00:00Z,30.2791,-87.5561,21.3,1111122 
DISL,ioos:station:DISL:PPTA:1,2017-04-02T05:30:00Z,30.2791,-87.5561,21.37,1111122 
DISL,ioos:station:DISL:PPTA:1,2017-04-02T06:00:00Z,30.2791,-87.5561,21.37,1111122 
DISL,ioos:station:DISL:PPTA:1,2017-04-02T06:30:00Z,30.2791,-87.5561,21.5,1111122 
DISL,ioos:station:DISL:PPTA:1,2017-04-02T07:00:00Z,30.2791,-87.5561,21.43,1111122 
DISL,ioos:station:DISL:PPTA:1,2017-04-02T07:30:00Z,30.2791,-87.5561,21.6,1111122 
DISL,ioos:station:DISL:PPTA:1,2017-04-02T08:00:00Z,30.2791,-87.5561,21.57,1111122 
DISL,ioos:station:DISL:PPTA:1,2017-04-02T08:30:00Z,30.2791,-87.5561,21.54,1111122 
DISL,ioos:station:DISL:PPTA:1,2017-04-02T09:00:00Z,30.2791,-87.5561,21.57,1111122 
DISL,ioos:station:DISL:PPTA:1,2017-04-02T09:30:00Z,30.2791,-87.5561,21.54,1111122 
DISL,ioos:station:DISL:PPTA:1,2017-04-02T10:00:00Z,30.2791,-87.5561,21.57,1111122 
DISL,ioos:station:DISL:PPTA:1,2017-04-02T10:30:00Z,30.2791,-87.5561,21.5,1111122 
DISL,ioos:station:DISL:PPTA:1,2017-04-02T11:00:00Z,30.2791,-87.5561,21.5,1111122 
DISL,ioos:station:DISL:PPTA:1,2017-04-02T11:30:00Z,30.2791,-87.5561,21.37,1111122 
DISL,ioos:station:DISL:PPTA:1,2017-04-02T12:00:00Z,30.2791,-87.5561,21.5,1111122 
DISL,ioos:station:DISL:PPTA:1,2017-04-02T12:30:00Z,30.2791,-87.5561,21.84,1111122 
DISL,ioos:station:DISL:PPTA:1,2017-04-02T13:00:00Z,30.2791,-87.5561,22.24,1111122 
DISL,ioos:station:DISL:PPTA:1,2017-04-02T13:30:00Z,30.2791,-87.5561,22.13,1111122 
DISL,ioos:station:DISL:PPTA:1,2017-04-02T14:00:00Z,30.2791,-87.5561,22.45,1111122 
DISL,ioos:station:DISL:PPTA:1,2017-04-02T14:30:00Z,30.2791,-87.5561,22.0,1111122 
DISL,ioos:station:DISL:PPTA:1,2017-04-02T15:00:00Z,30.2791,-87.5561,22.33,1111122 
DISL,ioos:station:DISL:PPTA:1,2017-04-02T15:30:00Z,30.2791,-87.5561,22.56,1111122 
DISL,ioos:station:DISL:PPTA:1,2017-04-02T16:00:00Z,30.2791,-87.5561,22.73,1111122 
DISL,ioos:station:DISL:PPTA:1,2017-04-02T16:30:00Z,30.2791,-87.5561,22.87,1111122 
DISL,ioos:station:DISL:PPTA:1,2017-04-02T17:00:00Z,30.2791,-87.5561,23.21,1111122 
DISL,ioos:station:DISL:PPTA:1,2017-04-02T17:30:00Z,30.2791,-87.5561,23.2,1111122 
DISL,ioos:station:DISL:PPTA:1,2017-04-02T18:00:00Z,30.2791,-87.5561,23.17,1111122 
DISL,ioos:station:DISL:PPTA:1,2017-04-02T18:30:00Z,30.2791,-87.5561,23.11,1111122 
DISL,ioos:station:DISL:PPTA:1,2017-04-02T19:00:00Z,30.2791,-87.5561,22.67,1111122 
DISL,ioos:station:DISL:PPTA:1,2017-04-02T19:30:00Z,30.2791,-87.5561,23.32,1111122 
DISL,ioos:station:DISL:PPTA:1,2017-04-02T20:00:00Z,30.2791,-87.5561,23.26,1111122 
DISL,ioos:station:DISL:PPTA:1,2017-04-02T20:30:00Z,30.2791,-87.5561,23.37,1111122 
DISL,ioos:station:DISL:PPTA:1,2017-04-02T21:00:00Z,30.2791,-87.5561,23.2,1111122 
DISL,ioos:station:DISL:PPTA:1,2017-04-02T21:30:00Z,30.2791,-87.5561,23.06,1111122 
DISL,ioos:station:DISL:PPTA:1,2017-04-02T22:00:00Z,30.2791,-87.5561,22.99,1111122 
DISL,ioos:station:DISL:PPTA:1,2017-04-02T22:30:00Z,30.2791,-87.5561,22.76,1111122 
DISL,ioos:station:DISL:PPTA:1,2017-04-02T23:00:00Z,30.2791,-87.5561,22.93,1111122 
DISL,ioos:station:DISL:PPTA:1,2017-04-02T23:30:00Z,30.2791,-87.5561,22.79,1111122 
DISL,ioos:station:DISL:PPTA:1,2017-04-03T00:00:00Z,30.2791,-87.5561,22.82,1111122 
DISL,ioos:station:DISL:PPTA:1,2017-04-03T00:30:00Z,30.2791,-87.5561,22.76,1111122 
DISL,ioos:station:DISL:PPTA:1,2017-04-03T01:00:00Z,30.2791,-87.5561,22.7,1111122 
DISL,ioos:station:DISL:PPTA:1,2017-04-03T01:30:00Z,30.2791,-87.5561,22.73,1111122 
DISL,ioos:station:DISL:PPTA:1,2017-04-03T02:00:00Z,30.2791,-87.5561,22.83,1111122 
DISL,ioos:station:DISL:PPTA:1,2017-04-03T02:30:00Z,30.2791,-87.5561,22.84,1111122 
DISL,ioos:station:DISL:PPTA:1,2017-04-03T03:00:00Z,30.2791,-87.5561,22.9,1111122 
DISL,ioos:station:DISL:PPTA:1,2017-04-03T03:30:00Z,30.2791,-87.5561,22.77,1111122 
DISL,ioos:station:DISL:PPTA:1,2017-04-03T04:00:00Z,30.2791,-87.5561,23.01,1111122 
DISL,ioos:station:DISL:PPTA:1,2017-04-03T04:30:00Z,30.2791,-87.5561,23.01,1111122 
DISL,ioos:station:DISL:PPTA:1,2017-04-03T05:00:00Z,30.2791,-87.5561,23.01,1111122 
DISL,ioos:station:DISL:PPTA:1,2017-04-03T05:30:00Z,30.2791,-87.5561,22.94,1111122 
DISL,ioos:station:DISL:PPTA:1,2017-04-03T06:00:00Z,30.2791,-87.5561,23.04,1111122 
DISL,ioos:station:DISL:PPTA:1,2017-04-03T06:30:00Z,30.2791,-87.5561,23.11,1111122 
DISL,ioos:station:DISL:PPTA:1,2017-04-03T07:00:00Z,30.2791,-87.5561,23.24,1111122 
DISL,ioos:station:DISL:PPTA:1,2017-04-03T07:30:00Z,30.2791,-87.5561,23.24,1111122 
DISL,ioos:station:DISL:PPTA:1,2017-04-03T08:00:00Z,30.2791,-87.5561,23.18,1111122 
DISL,ioos:station:DISL:PPTA:1,2017-04-03T08:30:00Z,30.2791,-87.5561,23.14,1111122 
DISL,ioos:station:DISL:PPTA:1,2017-04-03T09:00:00Z,30.2791,-87.5561,23.21,1111122 
DISL,ioos:station:DISL:PPTA:1,2017-04-03T09:30:00Z,30.2791,-87.5561,23.31,1111122 
DISL,ioos:station:DISL:PPTA:1,2017-04-03T10:00:00Z,30.2791,-87.5561,23.28,1111122 
DISL,ioos:station:DISL:PPTA:1,2017-04-03T10:30:00Z,30.2791,-87.5561,23.51,1111122 
DISL,ioos:station:DISL:PPTA:1,2017-04-03T11:00:00Z,30.2791,-87.5561,23.55,1111122 
DISL,ioos:station:DISL:PPTA:1,2017-04-03T11:30:00Z,30.2791,-87.5561,23.75,1111122 
DISL,ioos:station:DISL:PPTA:1,2017-04-03T12:00:00Z,30.2791,-87.5561,23.74,1111122 
DISL,ioos:station:DISL:PPTA:1,2017-04-03T12:30:00Z,30.2791,-87.5561,23.78,1111122 
DISL,ioos:station:DISL:PPTA:1,2017-04-03T13:00:00Z,30.2791,-87.5561,23.71,1111122 
DISL,ioos:station:DISL:PPTA:1,2017-04-03T13:30:00Z,30.2791,-87.5561,23.68,1111122 
DISL,ioos:station:DISL:PPTA:1,2017-04-03T14:00:00Z,30.2791,-87.5561,23.64,1111122 
DISL,ioos:station:DISL:PPTA:1,2017-04-03T14:30:00Z,30.2791,-87.5561,18.32,1111122 
DISL,ioos:station:DISL:PPTA:1,2017-04-03T15:00:00Z,30.2791,-87.5561,16.98,1111122 
DISL,ioos:station:DISL:PPTA:1,2017-04-03T15:30:00Z,30.2791,-87.5561,17.1,1111122 
DISL,ioos:station:DISL:PPTA:1,2017-04-03T16:00:00Z,30.2791,-87.5561,17.22,1111122 
DISL,ioos:station:DISL:PPTA:1,2017-04-03T16:30:00Z,30.2791,-87.5561,17.53,1111122 
DISL,ioos:station:DISL:PPTA:1,2017-04-03T17:00:00Z,30.2791,-87.5561,18.14,1111122 
DISL,ioos:station:DISL:PPTA:1,2017-04-03T17:30:00Z,30.2791,-87.5561,19.47,1111122 
DISL,ioos:station:DISL:PPTA:1,2017-04-03T18:00:00Z,30.2791,-87.5561,21.0,1111122 
DISL,ioos:station:DISL:PPTA:1,2017-04-03T18:30:00Z,30.2791,-87.5561,21.71,1111122 
DISL,ioos:station:DISL:PPTA:1,2017-04-03T19:00:00Z,30.2791,-87.5561,21.23,1111122 
DISL,ioos:station:DISL:PPTA:1,2017-04-03T19:30:00Z,30.2791,-87.5561,20.64,1111122 
DISL,ioos:station:DISL:PPTA:1,2017-04-03T20:00:00Z,30.2791,-87.5561,21.42,1111122 
DISL,ioos:station:DISL:PPTA:1,2017-04-03T20:30:00Z,30.2791,-87.5561,21.65,1111122 
DISL,ioos:station:DISL:PPTA:1,2017-04-03T21:00:00Z,30.2791,-87.5561,21.55,1111122 
DISL,ioos:station:DISL:PPTA:1,2017-04-03T21:30:00Z,30.2791,-87.5561,21.48,1111122 
DISL,ioos:station:DISL:PPTA:1,2017-04-03T22:00:00Z,30.2791,-87.5561,21.82,1111122 
DISL,ioos:station:DISL:PPTA:1,2017-04-03T22:30:00Z,30.2791,-87.5561,22.47,1111122 
DISL,ioos:station:DISL:PPTA:1,2017-04-03T23:00:00Z,30.2791,-87.5561,22.78,1111122 
DISL,ioos:station:DISL:PPTA:1,2017-04-03T23:30:00Z,30.2791,-87.5561,23.08,1111122 
DISL,ioos:station:DISL:PPTA:1,2017-04-04T00:00:00Z,30.2791,-87.5561,22.47,1111122 
DISL,ioos:station:DISL:PPTA:1,2017-04-04T00:30:00Z,30.2791,-87.5561,22.2,1111122 
DISL,ioos:station:DISL:PPTA:1,2017-04-04T01:00:00Z,30.2791,-87.5561,22.17,1111122 
DISL,ioos:station:DISL:PPTA:1,2017-04-04T01:30:00Z,30.2791,-87.5561,22.18,1111122 
DISL,ioos:station:DISL:PPTA:1,2017-04-04T02:00:00Z,30.2791,-87.5561,22.22,1111122 
DISL,ioos:station:DISL:PPTA:1,2017-04-04T02:30:00Z,30.2791,-87.5561,22.12,1111122 
DISL,ioos:station:DISL:PPTA:1,2017-04-04T03:00:00Z,30.2791,-87.5561,22.15,1111122 
DISL,ioos:station:DISL:PPTA:1,2017-04-04T03:30:00Z,30.2791,-87.5561,22.25,1111122 
DISL,ioos:station:DISL:PPTA:1,2017-04-04T04:00:00Z,30.2791,-87.5561,22.15,1111122 
DISL,ioos:station:DISL:PPTA:1,2017-04-04T04:30:00Z,30.2791,-87.5561,22.01,1111122 
DISL,ioos:station:DISL:PPTA:1,2017-04-04T05:00:00Z,30.2791,-87.5561,22.18,1111122 
DISL,ioos:station:DISL:PPTA:1,2017-04-04T05:30:00Z,30.2791,-87.5561,22.0,1111122 
DISL,ioos:station:DISL:PPTA:1,2017-04-04T06:00:00Z,30.2791,-87.5561,21.97,1111122 
DISL,ioos:station:DISL:PPTA:1,2017-04-04T06:30:00Z,30.2791,-87.5561,21.8,1111122 
DISL,ioos:station:DISL:PPTA:1,2017-04-04T07:00:00Z,30.2791,-87.5561,21.87,1111122 
DISL,ioos:station:DISL:PPTA:1,2017-04-04T07:30:00Z,30.2791,-87.5561,21.77,1111122 
DISL,ioos:station:DISL:PPTA:1,2017-04-04T08:00:00Z,30.2791,-87.5561,21.54,1111122 
DISL,ioos:station:DISL:PPTA:1,2017-04-04T08:30:00Z,30.2791,-87.5561,21.19,1111122 
DISL,ioos:station:DISL:PPTA:1,2017-04-04T09:00:00Z,30.2791,-87.5561,20.85,1111122 
DISL,ioos:station:DISL:PPTA:1,2017-04-04T09:30:00Z,30.2791,-87.5561,20.38,1111122 
DISL,ioos:station:DISL:PPTA:1,2017-04-04T10:00:00Z,30.2791,-87.5561,20.2,1111122 
DISL,ioos:station:DISL:PPTA:1,2017-04-04T10:30:00Z,30.2791,-87.5561,20.31,1111122 
DISL,ioos:station:DISL:PPTA:1,2017-04-04T11:00:00Z,30.2791,-87.5561,20.31,1111122 
DISL,ioos:station:DISL:PPTA:1,2017-04-04T11:30:00Z,30.2791,-87.5561,20.24,1111122 
DISL,ioos:station:DISL:PPTA:1,2017-04-04T12:00:00Z,30.2791,-87.5561,20.1,1111122 
DISL,ioos:station:DISL:PPTA:1,2017-04-04T12:30:00Z,30.2791,-87.5561,19.9,1111122 
DISL,ioos:station:DISL:PPTA:1,2017-04-04T13:00:00Z,30.2791,-87.5561,19.69,1111122 
DISL,ioos:station:DISL:PPTA:1,2017-04-04T13:30:00Z,30.2791,-87.5561,19.49,1111122 
DISL,ioos:station:DISL:PPTA:1,2017-04-04T14:00:00Z,30.2791,-87.5561,20.03,1111122 
DISL,ioos:station:DISL:PPTA:1,2017-04-04T14:30:00Z,30.2791,-87.5561,20.83,1111122 
DISL,ioos:station:DISL:PPTA:1,2017-04-04T15:00:00Z,30.2791,-87.5561,21.94,1111122 
DISL,ioos:station:DISL:PPTA:1,2017-04-04T15:30:00Z,30.2791,-87.5561,22.48,1111122 
DISL,ioos:station:DISL:PPTA:1,2017-04-04T16:00:00Z,30.2791,-87.5561,22.22,1111122 
DISL,ioos:station:DISL:PPTA:1,2017-04-04T16:30:00Z,30.2791,-87.5561,22.02,1111122 
DISL,ioos:station:DISL:PPTA:1,2017-04-04T17:00:00Z,30.2791,-87.5561,21.51,1111122 
DISL,ioos:station:DISL:PPTA:1,2017-04-04T17:30:00Z,30.2791,-87.5561,21.27,1111122 
DISL,ioos:station:DISL:PPTA:1,2017-04-04T18:00:00Z,30.2791,-87.5561,22.12,1111122 
DISL,ioos:station:DISL:PPTA:1,2017-04-04T18:30:00Z,30.2791,-87.5561,22.23,1111122 
DISL,ioos:station:DISL:PPTA:1,2017-04-04T19:00:00Z,30.2791,-87.5561,21.93,1111122 
DISL,ioos:station:DISL:PPTA:1,2017-04-04T19:30:00Z,30.2791,-87.5561,22.24,1111122 
DISL,ioos:station:DISL:PPTA:1,2017-04-04T20:00:00Z,30.2791,-87.5561,22.93,1111122 
DISL,ioos:station:DISL:PPTA:1,2017-04-04T20:30:00Z,30.2791,-87.5561,22.96,1111122 
DISL,ioos:station:DISL:PPTA:1,2017-04-04T21:00:00Z,30.2791,-87.5561,22.99,1111122 
DISL,ioos:station:DISL:PPTA:1,2017-04-04T21:30:00Z,30.2791,-87.5561,23.03,1111122 
DISL,ioos:station:DISL:PPTA:1,2017-04-04T22:00:00Z,30.2791,-87.5561,23.3,1111122 
DISL,ioos:station:DISL:PPTA:1,2017-04-04T22:30:00Z,30.2791,-87.5561,23.03,1111122 
DISL,ioos:station:DISL:PPTA:1,2017-04-04T23:00:00Z,30.2791,-87.5561,22.76,1111122 
DISL,ioos:station:DISL:PPTA:1,2017-04-04T23:30:00Z,30.2791,-87.5561,22.53,1111122 
DISL,ioos:station:DISL:PPTA:1,2017-04-05T00:00:00Z,30.2791,-87.5561,22.46,1111122 
DISL,ioos:station:DISL:PPTA:1,2017-04-05T00:30:00Z,30.2791,-87.5561,22.5,1111122 
DISL,ioos:station:DISL:PPTA:1,2017-04-05T01:00:00Z,30.2791,-87.5561,22.54,1111122 
DISL,ioos:station:DISL:PPTA:1,2017-04-05T01:30:00Z,30.2791,-87.5561,22.78,1111122 
DISL,ioos:station:DISL:PPTA:1,2017-04-05T02:00:00Z,30.2791,-87.5561,22.85,1111122 
DISL,ioos:station:DISL:PPTA:1,2017-04-05T02:30:00Z,30.2791,-87.5561,22.91,1111122 
DISL,ioos:station:DISL:PPTA:1,2017-04-05T03:00:00Z,30.2791,-87.5561,22.97,1111122 
DISL,ioos:station:DISL:PPTA:1,2017-04-05T03:30:00Z,30.2791,-87.5561,22.77,1111122 
DISL,ioos:station:DISL:PPTA:1,2017-04-05T04:00:00Z,30.2791,-87.5561,22.87,1111122 
DISL,ioos:station:DISL:PPTA:1,2017-04-05T04:30:00Z,30.2791,-87.5561,22.95,1111122 
DISL,ioos:station:DISL:PPTA:1,2017-04-05T05:00:00Z,30.2791,-87.5561,23.11,1111122 
DISL,ioos:station:DISL:PPTA:1,2017-04-05T05:30:00Z,30.2791,-87.5561,23.07,1111122 
DISL,ioos:station:DISL:PPTA:1,2017-04-05T06:00:00Z,30.2791,-87.5561,23.38,1111122 
DISL,ioos:station:DISL:PPTA:1,2017-04-05T06:30:00Z,30.2791,-87.5561,23.45,1111122 
DISL,ioos:station:DISL:PPTA:1,2017-04-05T07:00:00Z,30.2791,-87.5561,23.51,1111122 
DISL,ioos:station:DISL:PPTA:1,2017-04-05T07:30:00Z,30.2791,-87.5561,23.61,1111122 
DISL,ioos:station:DISL:PPTA:1,2017-04-05T08:00:00Z,30.2791,-87.5561,23.61,1111122 
DISL,ioos:station:DISL:PPTA:1,2017-04-05T08:30:00Z,30.2791,-87.5561,23.54,1111122 
DISL,ioos:station:DISL:PPTA:1,2017-04-05T09:00:00Z,30.2791,-87.5561,23.47,1111122 
DISL,ioos:station:DISL:PPTA:1,2017-04-05T09:30:00Z,30.2791,-87.5561,23.51,1111122 
DISL,ioos:station:DISL:PPTA:1,2017-04-05T10:00:00Z,30.2791,-87.5561,23.57,1111122 
DISL,ioos:station:DISL:PPTA:1,2017-04-05T10:30:00Z,30.2791,-87.5561,23.71,1111122 
DISL,ioos:station:DISL:PPTA:1,2017-04-05T11:00:00Z,30.2791,-87.5561,23.64,1111122 
DISL,ioos:station:DISL:PPTA:1,2017-04-05T11:30:00Z,30.2791,-87.5561,23.71,1111122 
DISL,ioos:station:DISL:PPTA:1,2017-04-05T12:00:00Z,30.2791,-87.5561,23.78,1111122 
DISL,ioos:station:DISL:PPTA:1,2017-04-05T12:30:00Z,30.2791,-87.5561,23.71,1111122 
DISL,ioos:station:DISL:PPTA:1,2017-04-05T13:00:00Z,30.2791,-87.5561,23.71,1111122 
DISL,ioos:station:DISL:PPTA:1,2017-04-05T13:30:00Z,30.2791,-87.5561,23.81,1111122 
DISL,ioos:station:DISL:PPTA:1,2017-04-05T14:00:00Z,30.2791,-87.5561,24.22,1111122 
DISL,ioos:station:DISL:PPTA:1,2017-04-05T14:30:00Z,30.2791,-87.5561,24.55,1111122 
DISL,ioos:station:DISL:PPTA:1,2017-04-05T15:00:00Z,30.2791,-87.5561,24.3,1111122 
DISL,ioos:station:DISL:PPTA:1,2017-04-05T15:30:00Z,30.2791,-87.5561,24.27,1111122 
DISL,ioos:station:DISL:PPTA:1,2017-04-05T16:00:00Z,30.2791,-87.5561,24.2,1111122 
DISL,ioos:station:DISL:PPTA:1,2017-04-05T16:30:00Z,30.2791,-87.5561,23.98,1111122 
DISL,ioos:station:DISL:PPTA:1,2017-04-05T17:00:00Z,30.2791,-87.5561,20.5,1111122 
DISL,ioos:station:DISL:PPTA:1,2017-04-05T17:30:00Z,30.2791,-87.5561,22.64,1111122 
DISL,ioos:station:DISL:PPTA:1,2017-04-05T18:00:00Z,30.2791,-87.5561,20.8,1111122 
DISL,ioos:station:DISL:PPTA:1,2017-04-05T18:30:00Z,30.2791,-87.5561,21.62,1111122 
DISL,ioos:station:DISL:PPTA:1,2017-04-05T19:00:00Z,30.2791,-87.5561,24.28,1111122 
DISL,ioos:station:DISL:PPTA:1,2017-04-05T19:30:00Z,30.2791,-87.5561,25.04,1111122 
DISL,ioos:station:DISL:PPTA:1,2017-04-05T20:00:00Z,30.2791,-87.5561,24.79,1111122 
DISL,ioos:station:DISL:PPTA:1,2017-04-05T20:30:00Z,30.2791,-87.5561,24.61,1111122 
DISL,ioos:station:DISL:PPTA:1,2017-04-05T21:00:00Z,30.2791,-87.5561,25.02,1111122 
DISL,ioos:station:DISL:PPTA:1,2017-04-05T21:30:00Z,30.2791,-87.5561,25.05,1111122 
DISL,ioos:station:DISL:PPTA:1,2017-04-05T22:00:00Z,30.2791,-87.5561,24.37,1111122 
DISL,ioos:station:DISL:PPTA:1,2017-04-05T22:30:00Z,30.2791,-87.5561,24.45,1111122 
DISL,ioos:station:DISL:PPTA:1,2017-04-05T23:00:00Z,30.2791,-87.5561,24.63,1111122 
DISL,ioos:station:DISL:PPTA:1,2017-04-05T23:30:00Z,30.2791,-87.5561,24.09,1111122 
DISL,ioos:station:DISL:PPTA:1,2017-04-06T00:00:00Z,30.2791,-87.5561,23.71,1111122 
DISL,ioos:station:DISL:PPTA:1,2017-04-06T00:30:00Z,30.2791,-87.5561,23.64,1111122 
DISL,ioos:station:DISL:PPTA:1,2017-04-06T01:00:00Z,30.2791,-87.5561,23.71,1111122 
DISL,ioos:station:DISL:PPTA:1,2017-04-06T01:30:00Z,30.2791,-87.5561,23.79,1111122 
DISL,ioos:station:DISL:PPTA:1,2017-04-06T02:00:00Z,30.2791,-87.5561,24.2,1111122 
DISL,ioos:station:DISL:PPTA:1,2017-04-06T02:30:00Z,30.2791,-87.5561,24.41,1111122 
DISL,ioos:station:DISL:PPTA:1,2017-04-06T03:00:00Z,30.2791,-87.5561,23.25,1111122 
DISL,ioos:station:DISL:PPTA:1,2017-04-06T03:30:00Z,30.2791,-87.5561,22.23,1111122 
DISL,ioos:station:DISL:PPTA:1,2017-04-06T04:00:00Z,30.2791,-87.5561,20.97,1111122 
DISL,ioos:station:DISL:PPTA:1,2017-04-06T04:30:00Z,30.2791,-87.5561,19.76,1111122 
DISL,ioos:station:DISL:PPTA:1,2017-04-06T05:00:00Z,30.2791,-87.5561,18.63,1111122 
DISL,ioos:station:DISL:PPTA:1,2017-04-06T05:30:00Z,30.2791,-87.5561,17.99,1111122 
DISL,ioos:station:DISL:PPTA:1,2017-04-06T06:00:00Z,30.2791,-87.5561,17.42,1111122 
DISL,ioos:station:DISL:PPTA:1,2017-04-06T06:30:00Z,30.2791,-87.5561,16.92,1111122 
DISL,ioos:station:DISL:PPTA:1,2017-04-06T07:00:00Z,30.2791,-87.5561,16.55,1111122 
DISL,ioos:station:DISL:PPTA:1,2017-04-06T07:30:00Z,30.2791,-87.5561,16.28,1111122 
DISL,ioos:station:DISL:PPTA:1,2017-04-06T08:00:00Z,30.2791,-87.5561,16.08,1111122 
DISL,ioos:station:DISL:PPTA:1,2017-04-06T08:30:00Z,30.2791,-87.5561,15.84,1111122 
DISL,ioos:station:DISL:PPTA:1,2017-04-06T09:00:00Z,30.2791,-87.5561,15.77,1111122 
DISL,ioos:station:DISL:PPTA:1,2017-04-06T09:30:00Z,30.2791,-87.5561,15.58,1111122 
DISL,ioos:station:DISL:PPTA:1,2017-04-06T10:00:00Z,30.2791,-87.5561,15.54,1111122 
DISL,ioos:station:DISL:PPTA:1,2017-04-06T10:30:00Z,30.2791,-87.5561,15.23,1111122 
DISL,ioos:station:DISL:PPTA:1,2017-04-06T11:00:00Z,30.2791,-87.5561,14.93,1111122 
DISL,ioos:station:DISL:PPTA:1,2017-04-06T11:30:00Z,30.2791,-87.5561,14.7,1111122 
DISL,ioos:station:DISL:PPTA:1,2017-04-06T12:00:00Z,30.2791,-87.5561,14.94,1111122 
DISL,ioos:station:DISL:PPTA:1,2017-04-06T12:30:00Z,30.2791,-87.5561,14.96,1111122 
DISL,ioos:station:DISL:PPTA:1,2017-04-06T13:00:00Z,30.2791,-87.5561,15.23,1111122 
DISL,ioos:station:DISL:PPTA:1,2017-04-06T13:30:00Z,30.2791,-87.5561,15.65,1111122 
DISL,ioos:station:DISL:PPTA:1,2017-04-06T14:00:00Z,30.2791,-87.5561,16.63,1111122 
DISL,ioos:station:DISL:PPTA:1,2017-04-06T14:30:00Z,30.2791,-87.5561,17.24,1111122 
DISL,ioos:station:DISL:PPTA:1,2017-04-06T15:00:00Z,30.2791,-87.5561,17.13,1111122 
DISL,ioos:station:DISL:PPTA:1,2017-04-06T15:30:00Z,30.2791,-87.5561,17.44,1111122 
DISL,ioos:station:DISL:PPTA:1,2017-04-06T16:00:00Z,30.2791,-87.5561,17.85,1111122 
DISL,ioos:station:DISL:PPTA:1,2017-04-06T16:30:00Z,30.2791,-87.5561,18.43,1111122 
DISL,ioos:station:DISL:PPTA:1,2017-04-06T17:00:00Z,30.2791,-87.5561,19.04,1111122 
DISL,ioos:station:DISL:PPTA:1,2017-04-06T17:30:00Z,30.2791,-87.5561,19.51,1111122 
DISL,ioos:station:DISL:PPTA:1,2017-04-06T18:00:00Z,30.2791,-87.5561,19.57,1111122 
DISL,ioos:station:DISL:PPTA:1,2017-04-06T18:30:00Z,30.2791,-87.5561,20.08,1111122 
DISL,ioos:station:DISL:PPTA:1,2017-04-06T19:00:00Z,30.2791,-87.5561,20.32,1111122 
DISL,ioos:station:DISL:PPTA:1,2017-04-06T19:30:00Z,30.2791,-87.5561,20.29,1111122 
DISL,ioos:station:DISL:PPTA:1,2017-04-06T20:00:00Z,30.2791,-87.5561,20.25,1111122 
DISL,ioos:station:DISL:PPTA:1,2017-04-06T20:30:00Z,30.2791,-87.5561,20.77,1111122 
DISL,ioos:station:DISL:PPTA:1,2017-04-06T21:00:00Z,30.2791,-87.5561,20.67,1111122 
DISL,ioos:station:DISL:PPTA:1,2017-04-06T21:30:00Z,30.2791,-87.5561,20.85,1111122 
DISL,ioos:station:DISL:PPTA:1,2017-04-06T22:00:00Z,30.2791,-87.5561,20.95,1111122 
DISL,ioos:station:DISL:PPTA:1,2017-04-06T22:30:00Z,30.2791,-87.5561,20.96,1111122 
DISL,ioos:station:DISL:PPTA:1,2017-04-06T23:00:00Z,30.2791,-87.5561,20.61,1111122 
DISL,ioos:station:DISL:PPTA:1,2017-04-06T23:30:00Z,30.2791,-87.5561,20.51,1111122 